PAL714 RPLL-RPVE

Flight info

Callsign PAL714
Flight time 0h 39m
Altitude 25000
Route VERDE2R VERDE W24 TAPER TAPER7B
Aircraft A21N/M-SDE2E3FGHIRWXY/LB1

Departure

Time 2026-04-30 13:24
Airport Ninoy Aquino International Airport (RPLL)

Arrival

Time 2026-04-30 14:03
Airport Godofredo P. Ramos Airport (RPVE)
Time Latitude Longitude Altitude Speed Heading
2026-04-30 12:37 14.50831 121.01271 69 ft 0 kts 329°
2026-04-30 12:53 14.50820 121.01278 69 ft 2 kts 328°
2026-04-30 12:53 14.50806 121.01287 64 ft 2 kts 327°
2026-04-30 12:53 14.50792 121.01296 60 ft 2 kts 324°
2026-04-30 12:54 14.50779 121.01307 59 ft 2 kts 320°
2026-04-30 12:54 14.50767 121.01318 65 ft 2 kts 304°
2026-04-30 12:54 14.50762 121.01334 62 ft 2 kts 252°
2026-04-30 12:54 14.50765 121.01341 64 ft 0 kts 241°
2026-04-30 12:56 14.50764 121.01340 63 ft 1 kts 241°
2026-04-30 12:56 14.50757 121.01329 60 ft 3 kts 234°
2026-04-30 12:57 14.50732 121.01313 64 ft 5 kts 199°
2026-04-30 12:57 14.50693 121.01319 66 ft 6 kts 175°
2026-04-30 12:57 14.50655 121.01293 62 ft 8 kts 233°
2026-04-30 12:57 14.50625 121.01240 65 ft 8 kts 239°
2026-04-30 12:58 14.50606 121.01206 67 ft 4 kts 239°
2026-04-30 12:58 14.50589 121.01176 66 ft 6 kts 240°
2026-04-30 12:58 14.50562 121.01127 64 ft 9 kts 240°
2026-04-30 12:58 14.50525 121.01060 65 ft 12 kts 240°
2026-04-30 12:59 14.50480 121.00979 64 ft 14 kts 240°
2026-04-30 12:59 14.50426 121.00883 61 ft 17 kts 240°
2026-04-30 12:59 14.50364 121.00771 65 ft 19 kts 240°
2026-04-30 12:59 14.50299 121.00655 60 ft 17 kts 240°
2026-04-30 13:00 14.50250 121.00566 61 ft 12 kts 240°
2026-04-30 13:00 14.50206 121.00487 60 ft 12 kts 240°
2026-04-30 13:00 14.50170 121.00423 68 ft 10 kts 240°
2026-04-30 13:00 14.50132 121.00355 64 ft 12 kts 240°
2026-04-30 13:01 14.50087 121.00274 64 ft 13 kts 240°
2026-04-30 13:01 14.50049 121.00206 69 ft 9 kts 240°
2026-04-30 13:01 14.50016 121.00146 65 ft 10 kts 240°
2026-04-30 13:01 14.49984 121.00088 65 ft 7 kts 240°
2026-04-30 13:02 14.49957 121.00041 66 ft 7 kts 240°
2026-04-30 13:02 14.49950 121.00027 61 ft 0 kts 240°
2026-04-30 13:06 14.49933 120.99998 64 ft 5 kts 240°
2026-04-30 13:06 14.49911 120.99965 66 ft 4 kts 223°
2026-04-30 13:06 14.49887 120.99960 70 ft 2 kts 183°
2026-04-30 13:06 14.49874 120.99967 67 ft 1 kts 154°
2026-04-30 13:23 14.49866 120.99971 70 ft 4 kts 153°
2026-04-30 13:23 14.49821 121.00072 65 ft 14 kts 63°
2026-04-30 13:24 14.50499 121.01296 174 ft 179 kts 63°
2026-04-30 13:24 14.51551 121.03186 2177 ft 189 kts 60°
2026-04-30 13:25 14.53256 121.06246 4540 ft 217 kts 60°
2026-04-30 13:25 14.54059 121.09268 6356 ft 246 kts 108°
2026-04-30 13:26 14.50361 121.12640 9104 ft 282 kts 146°
2026-04-30 13:26 14.46932 121.14782 11266 ft 301 kts 147°
2026-04-30 13:27 14.42448 121.17583 12944 ft 348 kts 147°
2026-04-30 13:28 14.36544 121.21311 15032 ft 387 kts 147°
2026-04-30 13:28 14.31919 121.24265 17144 ft 398 kts 147°
2026-04-30 13:28 14.29551 121.25791 18175 ft 403 kts 147°
2026-04-30 13:29 14.24724 121.28898 19808 ft 416 kts 150°
2026-04-30 13:29 14.18781 121.29986 20035 ft 470 kts 186°
2026-04-30 13:30 14.10818 121.24581 20032 ft 437 kts 238°
2026-04-30 13:31 14.09137 121.18858 20037 ft 421 kts 259°
2026-04-30 13:31 14.07705 121.10016 20036 ft 421 kts 259°
2026-04-30 13:32 14.06712 121.04081 20039 ft 421 kts 259°
2026-04-30 13:32 14.05630 120.98152 20034 ft 420 kts 250°
2026-04-30 13:33 14.02309 120.93476 20552 ft 396 kts 215°
2026-04-30 13:33 13.97231 120.91595 21290 ft 389 kts 182°
2026-04-30 13:34 13.94578 120.91838 21667 ft 390 kts 167°
2026-04-30 13:34 13.86611 120.93901 22815 ft 396 kts 166°
2026-04-30 13:35 13.83916 120.94582 23202 ft 399 kts 166°
2026-04-30 13:35 13.78492 120.95973 23767 ft 406 kts 165°
2026-04-30 13:36 13.73079 120.97362 23733 ft 402 kts 166°
2026-04-30 13:36 13.70367 120.98054 23732 ft 401 kts 165°
2026-04-30 13:36 13.64952 120.99445 23738 ft 400 kts 165°
2026-04-30 13:37 13.62252 121.00136 23740 ft 400 kts 165°
2026-04-30 13:37 13.56849 121.01518 23747 ft 399 kts 165°
2026-04-30 13:38 13.51455 121.02919 23754 ft 399 kts 162°
2026-04-30 13:38 13.49001 121.04121 23765 ft 398 kts 146°
2026-04-30 13:38 13.44411 121.07374 23756 ft 398 kts 145°
2026-04-30 13:39 13.39864 121.10559 23762 ft 398 kts 145°
2026-04-30 13:39 13.35287 121.13781 23768 ft 399 kts 145°
2026-04-30 13:40 13.32993 121.15395 23769 ft 399 kts 145°
2026-04-30 13:40 13.30697 121.17001 23862 ft 397 kts 145°
2026-04-30 13:40 13.28429 121.18590 24362 ft 397 kts 145°
2026-04-30 13:40 13.26131 121.20206 24919 ft 404 kts 146°
2026-04-30 13:41 13.23773 121.21862 25082 ft 417 kts 146°
2026-04-30 13:41 13.21400 121.23524 25060 ft 410 kts 146°
2026-04-30 13:41 13.19036 121.25179 25068 ft 412 kts 146°
2026-04-30 13:41 13.16707 121.26813 25063 ft 409 kts 146°
2026-04-30 13:42 13.14353 121.28463 25066 ft 410 kts 146°
2026-04-30 13:42 13.11997 121.30113 25068 ft 409 kts 146°
2026-04-30 13:42 13.07295 121.33406 25071 ft 408 kts 146°
2026-04-30 13:43 13.04950 121.35047 25068 ft 408 kts 145°
2026-04-30 13:43 13.02608 121.36688 25068 ft 407 kts 145°
2026-04-30 13:43 13.00271 121.38323 25067 ft 407 kts 145°
2026-04-30 13:43 12.97930 121.39960 25069 ft 406 kts 145°
2026-04-30 13:44 12.95624 121.41573 25065 ft 406 kts 145°
2026-04-30 13:44 12.93289 121.43206 25064 ft 406 kts 145°
2026-04-30 13:44 12.90954 121.44839 25062 ft 406 kts 145°
2026-04-30 13:44 12.88621 121.46469 25062 ft 406 kts 145°
2026-04-30 13:45 12.83953 121.49732 25057 ft 405 kts 145°
2026-04-30 13:45 12.81622 121.51359 25054 ft 405 kts 145°
2026-04-30 13:45 12.79318 121.52968 25052 ft 405 kts 145°
2026-04-30 13:46 12.76988 121.54595 25051 ft 406 kts 145°
2026-04-30 13:46 12.74653 121.56224 25049 ft 404 kts 145°
2026-04-30 13:46 12.72385 121.57807 25036 ft 382 kts 145°
2026-04-30 13:46 12.70248 121.59297 25027 ft 361 kts 145°
2026-04-30 13:47 12.68215 121.60716 24878 ft 348 kts 145°
2026-04-30 13:47 12.66210 121.62115 24252 ft 350 kts 144°
2026-04-30 13:47 12.64200 121.63516 23738 ft 348 kts 144°
2026-04-30 13:47 12.62206 121.64906 23214 ft 345 kts 144°
2026-04-30 13:48 12.60232 121.66282 22647 ft 342 kts 144°
2026-04-30 13:48 12.58273 121.67647 22092 ft 339 kts 144°
2026-04-30 13:48 12.56354 121.68985 21564 ft 336 kts 144°
2026-04-30 13:48 12.54423 121.70330 21040 ft 333 kts 144°
2026-04-30 13:49 12.52508 121.71663 20515 ft 331 kts 144°
2026-04-30 13:49 12.50611 121.72984 20010 ft 328 kts 144°
2026-04-30 13:49 12.48729 121.74295 19511 ft 326 kts 144°
2026-04-30 13:49 12.46860 121.75596 19031 ft 324 kts 144°
2026-04-30 13:50 12.45003 121.76888 18556 ft 321 kts 144°
2026-04-30 13:50 12.41390 121.79402 17563 ft 316 kts 144°
2026-04-30 13:50 12.39576 121.80664 17053 ft 313 kts 143°
2026-04-30 13:51 12.37782 121.81912 16552 ft 311 kts 143°
2026-04-30 13:51 12.35890 121.82973 16053 ft 311 kts 159°
2026-04-30 13:51 12.33813 121.83587 15548 ft 310 kts 162°
2026-04-30 13:51 12.31744 121.84176 15142 ft 305 kts 161°
2026-04-30 13:52 12.29747 121.84781 15104 ft 302 kts 161°
2026-04-30 13:52 12.27710 121.85399 15021 ft 305 kts 161°
2026-04-30 13:52 12.25641 121.86011 14438 ft 310 kts 161°
2026-04-30 13:52 12.23599 121.86613 13977 ft 308 kts 161°
2026-04-30 13:53 12.21554 121.87222 13511 ft 305 kts 161°
2026-04-30 13:53 12.19535 121.87824 13073 ft 300 kts 161°
2026-04-30 13:53 12.17542 121.88416 12649 ft 295 kts 161°
2026-04-30 13:53 12.15584 121.88998 12219 ft 291 kts 161°
2026-04-30 13:54 12.13648 121.89575 11812 ft 288 kts 161°
2026-04-30 13:54 12.11725 121.90146 11409 ft 287 kts 161°
2026-04-30 13:54 12.09812 121.90715 10985 ft 286 kts 161°
2026-04-30 13:54 12.07905 121.91280 10577 ft 285 kts 161°
2026-04-30 13:55 12.05932 121.91513 10166 ft 290 kts 184°
2026-04-30 13:55 12.04020 121.90881 9744 ft 296 kts 209°
2026-04-30 13:55 12.02495 121.89474 9303 ft 297 kts 231°
2026-04-30 13:55 12.01307 121.87760 8857 ft 294 kts 234°
2026-04-30 13:56 12.00162 121.86041 8437 ft 291 kts 234°
2026-04-30 13:56 11.99002 121.84351 8022 ft 290 kts 233°
2026-04-30 13:56 11.97836 121.82669 7607 ft 289 kts 233°
2026-04-30 13:56 11.96692 121.81005 7194 ft 289 kts 233°
2026-04-30 13:57 11.95538 121.79324 6781 ft 287 kts 233°
2026-04-30 13:57 11.94394 121.77659 6372 ft 286 kts 233°
2026-04-30 13:57 11.93248 121.76004 5954 ft 284 kts 232°
2026-04-30 13:57 11.91831 121.74662 5559 ft 274 kts 204°
2026-04-30 13:58 11.90046 121.74132 5175 ft 263 kts 178°
2026-04-30 13:58 11.86740 121.75174 4445 ft 246 kts 147°
2026-04-30 13:58 11.85399 121.76175 4099 ft 233 kts 124°
2026-04-30 13:59 11.84655 121.77584 3786 ft 222 kts 102°
2026-04-30 13:59 11.84531 121.79109 3473 ft 213 kts 81°
2026-04-30 13:59 11.84966 121.80496 3211 ft 204 kts 63°
2026-04-30 13:59 11.85617 121.81756 2897 ft 198 kts 63°
2026-04-30 14:00 11.86231 121.82995 2623 ft 192 kts 64°
2026-04-30 14:00 11.87388 121.85304 2114 ft 169 kts 63°
2026-04-30 14:00 11.87911 121.86344 1898 ft 159 kts 63°
2026-04-30 14:01 11.88401 121.87319 1691 ft 151 kts 63°
2026-04-30 14:01 11.88876 121.88266 1490 ft 147 kts 63°
2026-04-30 14:01 11.89322 121.89154 1311 ft 137 kts 62°
2026-04-30 14:01 11.89763 121.90026 1126 ft 135 kts 61°
2026-04-30 14:02 11.90182 121.90865 956 ft 133 kts 62°
2026-04-30 14:02 11.90606 121.91709 785 ft 136 kts 62°
2026-04-30 14:02 11.91028 121.92568 563 ft 139 kts 64°
2026-04-30 14:02 11.91468 121.93435 410 ft 141 kts 61°
2026-04-30 14:03 11.91909 121.94294 225 ft 132 kts 64°
2026-04-30 14:03 11.92330 121.95141 49 ft 132 kts 64°
2026-04-30 14:03 11.92671 121.95826 27 ft 73 kts 63°
2026-04-30 14:03 11.92819 121.96123 31 ft 38 kts 63°
2026-04-30 14:04 11.92918 121.96320 28 ft 25 kts 63°
2026-04-30 14:04 11.92972 121.96429 26 ft 11 kts 70°
2026-04-30 14:04 11.92934 121.96472 25 ft 9 kts 154°
2026-04-30 14:04 11.92887 121.96496 26 ft 8 kts 153°
2026-04-30 14:05 11.92831 121.96525 27 ft 9 kts 153°
2026-04-30 14:05 11.92793 121.96509 28 ft 7 kts 234°
2026-04-30 14:05 11.92769 121.96463 27 ft 8 kts 243°
2026-04-30 14:05 11.92743 121.96410 27 ft 7 kts 242°
2026-04-30 14:06 11.92722 121.96388 27 ft 3 kts 200°
2026-04-30 14:06 11.92696 121.96402 27 ft 3 kts 153°
2026-04-30 14:07 11.92684 121.96408 27 ft 0 kts 152°
2026-04-30 14:07 11.92682 121.96409 28 ft 0 kts 152°